Date String (YYYY-MM-DD hh:mm:ss) UTC,Instrument flags,absolute air pressure of the measurement (hPa),sample flow rate (lpm),inlet stack bypass flow (lpm),air temperature of the measurement (°C),ambient temperature measured by the external sensor (°C),aerosol sample conditioner tube jacket temperature (°C),OPC LED temperature (°C),internal box temperature (°C),relative humidity of the measurement (%),span deviation,mass concentration of particles derived from Lorenz-Mie calculation of OPC scattering (μg/m³),mass concentration of particles derived from Lorenz-Mie calculation of OPC scattering (μg/m³),mass concentration of particles derived from Lorenz-Mie calculation of OPC scattering (μg/m³)
DateTimeUTC,F1_M11,P_M11,Q1_M11,Q2_M11,T1_M11,T2_M11,T3_M11,T4_M11,T5_M11,U1_M11,ZSPAN_M11,X0_M11,X2_M11,X1_M11
2023-07-09 20:00:00,SystemResetWarning,0832.0,5.00,000.00,029.3,027.5,000.0,037.5,030.8,32.5,-001.4,0010.91,0005.84,0005.37
2023-07-09 20:01:00,SystemResetWarning,0832.0,4.99,000.00,029.2,025.9,000.0,037.4,030.6,32.5,-000.8,0010.28,0005.79,0005.33
2023-07-09 20:02:00,SystemResetWarning,0832.1,5.01,000.00,029.2,025.0,000.0,037.3,030.4,33.8,-000.6,0010.00,0005.71,0005.29
2023-07-09 20:03:00,SystemResetWarning,0832.1,5.01,000.00,029.1,025.0,000.0,037.3,030.2,33.5,-000.2,0009.84,0005.61,0005.23
2023-07-09 20:04:00,SystemResetWarning,0832.2,5.00,000.00,029.0,025.3,000.0,037.3,030.1,32.8,0000.0,0009.40,0005.56,0005.19
2023-07-09 20:05:00,SystemResetWarning,0832.2,4.99,000.00,029.0,025.8,000.0,037.3,030.2,33.5,0000.0,0009.11,0005.54,0005.15
2023-07-09 20:06:00,SystemResetWarning,0832.2,5.00,000.00,029.0,026.2,000.0,037.4,030.3,32.8,0000.1,0009.21,0005.51,0005.10
2023-07-09 20:07:00,SystemResetWarning,0832.2,5.01,000.00,029.0,026.6,000.0,037.4,030.4,32.4,0000.1,0009.13,0005.45,0005.06
2023-07-09 20:08:00,SystemResetWarning,0832.2,5.00,000.00,029.0,027.0,000.0,037.4,030.5,32.5,-000.1,0008.53,0005.40,0005.02
2023-07-09 20:09:00,SystemResetWarning,0832.2,4.99,000.00,029.0,027.3,000.0,037.4,030.6,33.0,0000.0,0008.20,0005.36,0004.99
2023-07-09 20:10:00,SystemResetWarning,0832.1,5.00,000.00,029.1,027.6,000.0,037.4,030.6,32.3,0000.0,0008.16,0005.33,0004.95
2023-07-09 20:11:00,SystemResetWarning,0832.1,5.01,000.00,029.1,027.5,000.0,037.4,030.7,32.4,0000.0,0008.35,0005.32,0004.93
2023-07-09 20:12:00,SystemResetWarning,0832.0,4.99,000.00,029.1,026.1,000.0,037.3,030.6,32.1,0000.0,0008.73,0005.34,0004.94
2023-07-09 20:13:00,SystemResetWarning,0832.0,5.00,000.00,029.0,025.0,000.0,037.2,030.3,31.9,0000.0,0009.12,0005.41,0004.95
2023-07-09 20:14:00,SystemResetWarning,0832.0,5.01,000.00,029.0,024.8,000.0,037.2,030.1,32.0,0000.0,0009.33,0005.47,0004.97
2023-07-09 20:15:00,SystemResetWarning,0832.0,5.01,000.00,028.9,025.1,000.0,037.2,030.0,32.3,0000.0,0009.36,0005.51,0005.00
2023-07-09 20:16:00,SystemResetWarning,0832.0,5.00,000.00,028.8,025.6,000.0,037.2,030.1,32.7,0000.0,0009.28,0005.51,0005.04
2023-07-09 20:17:00,SystemResetWarning,0832.0,5.00,000.00,028.8,026.1,000.0,037.3,030.2,32.9,0000.0,0009.16,0005.51,0005.06
2023-07-09 20:18:00,SystemResetWarning,0832.0,4.99,000.00,028.9,026.5,000.0,037.3,030.3,33.1,0000.0,0009.28,0005.54,0005.07
2023-07-09 20:19:00,SystemResetWarning,0832.0,5.00,000.00,028.9,026.9,000.0,037.3,030.4,33.6,0000.0,0009.26,0005.54,0005.08
2023-07-09 20:20:00,SystemResetWarning,0832.0,5.00,000.00,028.9,027.2,000.0,037.3,030.5,34.2,0000.0,0009.36,0005.59,0005.10
2023-07-09 20:21:00,SystemResetWarning,0831.9,5.00,000.00,029.0,027.5,000.0,037.3,030.6,34.0,0000.0,0009.67,0005.62,0005.13
2023-07-09 20:22:00,SystemResetWarning,0832.0,5.01,000.00,029.0,027.7,000.0,037.4,030.7,34.7,0000.0,0009.96,0005.62,0005.14
2023-07-09 20:23:00,SystemResetWarning,0832.0,4.98,000.00,029.1,027.3,000.0,037.3,030.7,34.0,0000.0,0009.49,0005.62,0005.14
2023-07-09 20:24:00,SystemResetWarning,0832.0,4.99,000.00,029.2,025.7,000.0,037.2,030.6,33.3,0000.0,0009.21,0005.60,0005.16
2023-07-09 20:25:00,SystemResetWarning,0832.0,5.01,000.00,029.1,024.8,000.0,037.1,030.4,35.1,0000.0,0009.02,0005.56,0005.16
2023-07-09 20:26:00,SystemResetWarning,0832.0,5.01,000.00,029.1,024.8,000.0,037.1,030.2,34.3,0000.0,0009.11,0005.57,0005.18
2023-07-09 20:27:00,SystemResetWarning,0832.0,4.99,000.00,029.1,025.2,000.0,037.2,030.1,33.4,0000.0,0009.85,0005.66,0005.23
2023-07-09 20:28:00,SystemResetWarning,0832.1,5.02,000.00,029.2,025.7,000.0,037.2,030.2,32.8,0000.0,0010.62,0005.71,0005.27
2023-07-09 20:29:00,SystemResetWarning,0832.0,4.99,000.00,029.2,026.2,000.0,037.3,030.3,32.9,0000.4,0010.61,0005.75,0005.31
2023-07-09 20:30:00,SystemResetWarning,0832.0,4.99,000.00,029.3,026.6,000.0,037.3,030.4,33.0,0000.5,0010.80,0005.81,0005.36
2023-07-09 20:31:00,SystemResetWarning,0832.0,5.00,000.00,029.3,027.0,000.0,037.4,030.5,34.1,0000.6,0010.90,0005.84,0005.40
2023-07-09 20:32:00,SystemResetWarning,0832.0,5.00,000.00,029.3,027.3,000.0,037.4,030.6,33.9,0000.6,0010.73,0005.85,0005.43
2023-07-09 20:33:00,SystemResetWarning,0832.0,5.01,000.00,029.4,027.6,000.0,037.5,030.7,33.2,-000.7,0010.33,0005.89,0005.47
2023-07-09 20:34:00,SystemResetWarning,0832.0,5.00,000.00,029.4,027.8,000.0,037.5,030.8,32.5,-000.8,0010.67,0005.97,0005.51
2023-07-09 20:35:00,SystemResetWarning,0832.0,4.97,000.00,029.5,027.0,000.0,037.5,030.6,33.2,-001.1,0011.24,0006.04,0005.54
2023-07-09 20:36:00,SystemResetWarning,0831.9,5.02,000.00,029.4,025.5,000.0,037.4,030.4,33.1,-001.4,0011.62,0006.09,0005.57
2023-07-09 20:37:00,SystemResetWarning,0831.9,5.01,000.00,029.3,024.9,000.0,037.3,030.3,33.0,-002.1,0012.02,0006.10,0005.58
2023-07-09 20:38:00,SystemResetWarning,0831.9,5.00,000.00,029.2,025.1,000.0,037.3,030.1,33.3,-001.9,0011.57,0006.08,0005.57
2023-07-09 20:39:00,SystemResetWarning,0831.9,5.00,000.00,029.2,025.5,000.0,037.4,030.1,34.4,-002.0,0010.92,0006.08,0005.57
2023-07-09 20:40:00,SystemResetWarning,0831.9,4.99,000.00,029.2,025.9,000.0,037.4,030.3,34.8,-001.4,0010.98,0006.10,0005.57
2023-07-09 20:41:00,SystemResetWarning,0831.9,4.97,000.00,029.3,026.4,000.0,037.4,030.4,35.0,0000.0,0010.90,0006.13,0005.57
2023-07-09 20:42:00,SystemResetWarning,0832.0,5.04,000.00,029.4,026.8,000.0,037.5,030.6,34.5,-001.5,0010.79,0006.11,0005.57
2023-07-09 20:43:00,SystemResetWarning,0832.0,4.97,000.00,029.6,027.1,000.0,037.5,030.7,33.6,-002.0,0010.80,0006.13,0005.60
2023-07-09 20:44:00,SystemResetWarning,0832.0,5.01,000.00,029.8,027.4,000.0,037.6,030.8,34.4,-000.1,0010.91,0006.17,0005.62
2023-07-09 20:45:00,SystemResetWarning,0832.0,5.02,000.00,029.9,027.7,000.0,037.6,030.9,34.2,0000.0,0010.79,0006.19,0005.64
2023-07-09 20:46:00,SystemResetWarning,0832.0,4.98,000.00,030.0,027.2,000.0,037.6,030.9,33.8,-000.2,0010.78,0006.22,0005.66
2023-07-09 20:47:00,SystemResetWarning,0832.0,5.01,000.00,030.0,025.7,000.0,037.6,030.7,33.5,-001.9,0010.94,0006.25,0005.69
2023-07-09 20:48:00,SystemResetWarning,0832.0,5.00,000.00,030.0,024.9,000.0,037.5,030.5,33.0,-002.1,0010.99,0006.28,0005.70
2023-07-09 20:49:00,SystemResetWarning,0832.1,5.01,000.00,029.9,025.0,000.0,037.6,030.3,34.7,-002.2,0012.18,0006.31,0005.70
2023-07-09 20:50:00,SystemResetWarning,0832.1,5.01,000.00,029.9,025.4,000.0,037.6,030.3,33.5,-002.0,0012.85,0006.29,0005.71
2023-07-09 20:51:00,SystemResetWarning,0832.1,4.99,000.00,029.9,025.9,000.0,037.7,030.4,33.4,-001.7,0012.87,0006.30,0005.73
2023-07-09 20:52:00,SystemResetWarning,0832.0,5.02,000.00,029.9,026.3,000.0,037.8,030.5,33.7,-001.3,0012.83,0006.29,0005.76
2023-07-09 20:53:00,SystemResetWarning,0832.1,5.00,000.00,029.9,026.7,000.0,037.8,030.6,33.3,-001.1,0012.97,0006.34,0005.79
2023-07-09 20:54:00,SystemResetWarning,0832.1,5.00,000.00,030.0,027.1,000.0,037.9,030.7,34.1,-000.9,0013.14,0006.38,0005.82
2023-07-09 20:55:00,SystemResetWarning,0832.0,5.00,000.00,030.0,027.4,000.0,037.9,030.8,33.7,-001.3,0013.48,0006.39,0005.84
2023-07-09 20:56:00,SystemResetWarning,0832.1,5.00,000.00,030.0,027.6,000.0,038.0,030.9,33.1,-001.0,0013.42,0006.41,0005.89
2023-07-09 20:57:00,SystemResetWarning,0832.1,4.98,000.00,030.1,027.5,000.0,038.0,030.9,32.8,-000.8,0013.03,0006.42,0005.91
2023-07-09 20:58:00,SystemResetWarning,0832.1,5.00,000.00,030.0,026.0,000.0,037.9,030.8,33.4,-000.5,0012.63,0006.45,0005.92
2023-07-09 20:59:00,SystemResetWarning,0832.0,5.00,000.00,030.0,025.0,000.0,037.8,030.6,33.3,-000.5,0012.34,0006.48,0005.95
